#timestamp,LO_Frequency,Hit,StdDev 
1564610415.2,286047001.2,N
1564610435.0,286046998.1,N
1564610436.0,286046998.1,N
1564610455.8,286047001.2,N
1564610475.6,286046998.6,N
1564610495.5,286047000.4,N
1564610515.3,286047000.6,N
1564610535.1,286047002.4,N
1564610555.9,286047002.5,N
1564610575.7,286047002.2,N
1564610595.6,286047002.8,N
1564610615.4,286047000.2,N
1564610635.2,286047002.0,N
1564610655.1,286046999.7,N
1564610656.0,286046999.7,N
1564610675.8,286047000.7,N
1564610695.6,286047000.4,N
1564610715.5,286047000.0,N
1564610735.3,286047000.0,N
1564610755.2,286047002.3,N
1564610775.9,286046999.9,N
1564610795.7,286047002.6,N
1564610815.6,286046999.9,N
1564610835.4,286047002.4,N
1564610855.3,286047002.5,N
1564610875.1,286047002.0,N
1564610876.0,286047002.0,N
1564610895.8,286047001.8,N
1564610915.7,286047001.6,N
1564610935.5,286047002.0,N
1564610955.3,286047004.2,Y
1564610975.2,286047002.5,P
1564610995.0,286047002.3,P
1564610995.9,286047002.3,P
1564611015.8,286047002.7,Y
1564611035.6,286046999.2,P
1564611055.4,286046996.9,N
1564611075.3,286046999.6,N
1564611095.1,286046998.8,N
1564611115.9,286047001.2,N
1564611135.7,286047000.7,N
1564611155.5,286047001.2,N
1564611175.4,286046999.4,N
1564611195.2,286046999.1,N
1564611215.0,286046999.6,N
1564611215.9,286046999.6,N
1564611235.8,286047001.1,N
1564611255.6,286046998.9,N
1564611275.5,286046999.1,N
1564611295.3,286046996.6,N
1564611315.1,286046999.3,N
1564611335.9,286046998.8,N
1564611355.7,286046998.8,N
1564611375.6,286046998.6,N
1564611395.4,286047000.7,N
1564611415.2,286046998.5,N
1564611435.1,286046997.1,N
1564611436.0,286046997.1,N
1564611455.8,286046996.5,N
1564611475.7,286046997.0,N
1564611495.5,286046998.8,N
1564611515.3,286046996.9,N
1564611535.2,286046996.9,N
1564611555.0,286046998.2,N
1564611555.9,286046998.2,N
1564611575.7,286046998.1,N
1564611595.6,286046998.9,N
1564611615.4,286046997.1,N
1564611635.3,286046997.4,N
1564611655.1,286046997.1,N
1564611675.8,286046999.0,N
1564611695.7,286046997.4,N
1564611715.5,286046998.9,N
1564611735.4,286046999.0,N
1564611755.2,286046997.3,N
1564611775.0,286046996.9,N
1564611775.9,286046996.9,N
1564611795.8,286046998.3,N
1564611815.6,286046999.4,N
1564611835.7,286047000.0,N
1564611855.6,286047000.4,N
1564611875.4,286047001.1,N
1564611895.2,286046998.2,N
1564611915.1,286046998.7,N
1564611916.0,286046998.7,N
1564611935.8,286047001.2,N
1564611955.6,286046998.2,N
1564611975.5,286047000.9,N
1564611995.3,286047000.8,N
1564612015.2,286046998.4,N
1564612035.9,286047000.6,N
1564612055.7,286047000.0,N
1564612075.6,286047000.6,N
1564612095.4,286047000.7,N
1564612115.2,286047000.9,N
1564612135.1,286047000.3,N
1564612136.0,286047000.3,N
1564612155.8,286047000.5,N
1564612175.7,286047000.5,N
1564612195.5,286047000.2,N
1564612215.3,286047000.3,N
1564612235.2,286047002.3,N
1564612255.0,286047002.2,N
1564612255.9,286047002.2,N
1564612275.8,286047002.2,N
1564612295.6,286047002.1,N
1564612315.4,286047001.8,N
1564612335.3,286047002.0,N
1564612355.1,286047002.2,N
1564612375.9,286047002.4,N
1564612395.7,286047002.5,N
1564612415.5,286047000.4,N
1564612435.4,286047000.1,N
1564612455.2,286047000.3,N
1564612475.0,286047000.0,N
1564612475.9,286047000.0,N
1564612495.8,286046998.5,N
1564612515.6,286047001.1,N
1564612535.5,286046999.6,N
1564612555.3,286046998.3,N
1564612575.1,286047001.2,N
1564612595.9,286046998.3,N
1564612615.7,286046999.0,N
1564612635.6,286046998.2,N
1564612655.4,286047000.7,N
1564612675.2,286046998.1,N
1564612695.1,286046999.2,N
1564612696.0,286046999.2,N
1564612715.8,286046997.0,N
1564612735.6,286046996.5,N
1564612755.5,286046998.3,N
1564612775.3,286046997.2,N
1564612795.2,286046997.0,N
1564612815.9,286046996.6,N
1564612835.7,286046997.3,N
1564612855.6,286046999.5,N
1564612875.4,286046996.5,N
1564612895.2,286046996.5,N
1564612915.1,286046996.9,N
1564612916.0,286046996.9,N
1564612935.8,286046999.2,N
1564612955.7,286046999.3,N
1564612975.5,286046999.6,N
1564612995.3,286046999.2,N
1564613015.2,286046999.2,N
1564613035.0,286046996.5,N
1564613035.9,286046996.5,N
1564613055.8,286046999.6,N
1564613075.6,286046996.8,N
1564613095.4,286046997.8,N
1564613115.3,286046997.4,N
1564613135.1,286046997.2,N
1564613155.8,286046999.2,N
1564613175.7,286046999.6,N
1564613195.5,286046999.5,N
1564613215.4,286046996.7,N
1564613235.2,286046997.6,N
1564613255.0,286046993.4,Y
1564613256.0,286046993.4,P
1564613275.8,286046996.5,N
1564613295.6,286046996.7,N
1564613315.5,286046999.4,N
1564613335.3,286046998.7,N
1564613355.1,286047001.1,N
1564613375.9,286046999.3,N
1564613395.7,286046999.0,N
1564613415.6,286046999.3,N
1564613435.4,286046998.9,N
1564613455.2,286046998.9,N
1564613475.1,286047001.0,N
1564613476.0,286047001.0,N
1564613495.8,286046998.1,N
1564613515.7,286047000.7,N
1564613535.5,286047001.1,N
1564613555.3,286047000.7,N
1564613575.2,286046998.2,N
1564613595.0,286047000.1,N
1564613595.9,286047000.1,N
1564613615.7,286046999.8,N
1564613635.6,286047001.1,N
1564613655.4,286047000.9,N
1564613675.3,286046999.7,N
1564613695.1,286047002.4,N
1564613696.0,286047002.4,N
1564613715.8,286047002.6,N
1564613735.7,286047002.6,N
1564613755.5,286047000.6,N
1564613775.3,286047000.5,N
1564613795.2,286047001.0,N
1564613815.0,286046998.3,N
1564613815.9,286046998.3,N
1564613835.8,286046998.2,N
1564613855.6,286047001.2,N
1564613875.4,286046998.3,N
1564613895.3,286047001.0,N
1564613915.1,286047000.4,N
1564613935.9,286047000.7,N
1564613955.7,286047000.7,N
1564613975.5,286047002.4,N
1564613995.4,286047001.9,N
